Location: Bothwell
(42.3833°S, 147.0000°E)
Time: 21:03:45
(UTC+11:00)

RS-44 - Pass Details

Date: 28 September 2022
Orbit: 1175 x 1510 km, 82.5° (Epoch: 29 November)

Event Time Altitude Azimuth Distance (km) Brightness Sun altitude
Exits shadow 22:28:13 43° 145° (SE) 2,008 ? -40.6°
Drops below altitude 10° 22:34:04 10° 165° (SSE) 3,697 ? -41.2°
Sets 22:37:04 0° 168° (SSE) 4,687 ? -41.5°
